Regional Weather Roundup
Issued by NWS State College, PA

Home | Current Version | Previous Version | Graphics & Text | Print | Product List | Glossary On
Versions: 1 2 3 4 5 6 7 8 9 10 11 12 13 14 15 16 17 18 19 20 21 22 23 24 25 26 27 28 29 30 31 32 33 34 35 36 37 38 39 40 41 42 43 44 45 46 47 48 49 50
000
ASUS41 KCTP 111610
RWRCTP

REGIONAL WEATHER ROUNDUP
NATIONAL WEATHER SERVICE STATE COLLEGE PA
1200 PM EDT FRI JUL 11 2014

Note: "fair" indicates few or no clouds below 12,000 feet with no
significant weather and/or obstructions to visibility.

* = STATION THAT DOES NOT REPORT PRECIPITATION /E.G. RAIN...SNOW...ETC/
    THUNDER OR FOG.

PAZ002>004-007>009-013>016-020>023-029>032-111700-
WESTERN PENNSYLVANIA

CITY           SKY/WX    TMP DP  RH WIND       PRES   REMARKS
ERIE           SUNNY     75  59  57 N8        30.24S
MEADVILLE      SUNNY     77  57  50 N7        30.25S
FRANKLIN*      SUNNY     75  57  53 CALM      30.26S
NEW CASTLE     NOT AVBL
BEAVER COUNTY  SUNNY     79  61  53 CALM      30.23F
BUTLER*        SUNNY     79  63  57 CALM      30.25S
PITTSBURGH INT MOSUNNY   78  63  59 CALM      30.22F
PITTSBURGH     PTSUNNY   77  58  51 CALM      30.22S
INDIANA*       PTSUNNY   79  59  50 VRB5      30.27S
LATROBE        PTSUNNY   81  61  50 NE6       30.23S
WASHINGTON CO* MOSUNNY   79  57  47 NE5       30.23F
$$

PAZ004>006-010>012-017>019-024>028-033>037-041-042-045-046-049>053-111700-
CENTRAL PENNSYLVANIA

CITY           SKY/WX    TMP DP  RH WIND       PRES   REMARKS
BRADFORD       MOSUNNY   74  54  49 CALM      30.27S
DUBOIS         SUNNY     79  56  45 CALM      30.25S
CLEARFIELD     SUNNY     76  61  59 E6        30.26S
JOHNSTOWN      MOSUNNY   74  56  53 CALM      30.27S
ALTOONA        MOSUNNY   76  63  64 VRB3      30.26F
STATE COLLEGE  MOSUNNY   73  63  68 CALM      30.25S
WILLIAMSPORT   SUNNY     79  57  46 CALM      30.22F
SELINSGROVE    SUNNY     80  63  55 NE3       30.23S
FT INDIANTOWN  MOSUNNY   79  73  80 NE2       30.23S
CAPITAL CITY   PTSUNNY   81  65  58 CALM      30.22S
HARRISBURG     MOSUNNY   81  63  54 VRB3      30.21S
YORK           MOSUNNY   80  63  55 SE6       30.22S
$$

PAZ038>040-043-044-047-048-054-055-060>062-067>071-111700-
EASTERN PENNSYLVANIA

CITY           SKY/WX    TMP DP  RH WIND       PRES   REMARKS
SCRANTON       PTSUNNY   79  56  45 N5        30.24S
MOUNT POCONO   MOSUNNY   73  58  59 SE8       30.28S
ALLENTOWN      SUNNY     81  59  47 NE7       30.22F
QUAKERTOWN*    SUNNY     81  59  47 E5        30.23S
READING        SUNNY     80  60  50 E5        30.21S
LANCASTER      MOSUNNY   78  64  61 E8        30.22S
COATESVILLE    MOSUNNY   79  66  65 E6        30.23F
POTTSTOWN      SUNNY     80  62  54 N7        30.22F
BLUE BELL      MOSUNNY   82  63  51 CALM      30.20F
DOYLESTOWN     SUNNY     82  61  48 N8        30.21F
WILLOW GROVE   NOT AVBL
NORTH PHILA    SUNNY     84  61  45 NE8G17    30.21F
PHILADELPHIA   MOSUNNY   85  63  47 NE9G16    30.20S
$$



USA.gov is the U.S. government's official web portal to all federal, state and local government web resources and services.